Location: ????? ???????
(25.7275°N, 32.5929°E)
Time: 12:09:25
(UTC+00:00)

Cosmos 1933 Rocket - Pass Details

Date: 02 March 2021
Orbit: 607 x 630 km, 82.5° (Epoch: 15 April)

Event Time Altitude Azimuth Distance (km) Brightness Sun altitude
Rises 16:56:15 0° 185° (S) 2,849 7.0 -15.3°
Reaches altitude 10° 16:58:27 10° 186° (S) 1,949 6.2 -15.8°
Maximum altitude 17:02:46 86° 274° (W) 614 3.5 -16.7°
Drops below altitude 10° 17:07:08 10° 4° (N) 1,968 6.1 -17.7°
Sets 17:09:21 0° 5° (N) 2,879 7.0 -18.2°
